Regional Weather Roundup
Issued by NWS San Angelo, TX

Home | Current Version | Previous Version | Text Only | Print | Product List | Glossary On
Versions: 1 2 3 4 5 6 7 8 9 10 11 12 13 14 15 16 17 18 19 20 21 22 23 24 25 26 27 28 29 30 31 32 33 34 35 36 37 38 39 40 41 42 43 44 45 46 47 48 49 50
000
ASUS44 KSJT 041202
RWRSJT
WEST CENTRAL TEXAS REGIONAL WEATHER ROUNDUP
NATIONAL WEATHER SERVICE SAN ANGELO TX
600 AM CST WED MAR 04 2015

NOTE: "FAIR" INDICATES FEW OR NO CLOUDS BELOW 12,000 FEET WITH NO
SIGNIFICANT WEATHER AND/OR OBSTRUCTIONS TO VISIBILITY.

TXZ049-054-064>066-071>073-076>078-098-099-113-114-127-128-139-140-
154-155-168>170-041300
...LOCATIONS ACROSS WEST CENTRAL TEXAS...

CITY           SKY/WX    TMP DP  RH WIND       PRES   REMARKS
SAN ANGELO     CLOUDY    52  50  93 SW7       29.81R
ABILENE        LGT RAIN  51  50  96 N12       29.86R FOG
DYESS AFB      RAIN      50  48  93 NE10      29.84R FOG
JUNCTION       CLOUDY    53  52  96 CALM      29.80S FOG
SWEETWATER     NOT AVBL
BROWNWOOD      NOT AVBL
COLEMAN        CLOUDY    52  52 100 SW5       29.84S
SONORA         NOT AVBL
OZONA          NOT AVBL
BRADY          MOCLDY    52  52 100 E3        29.82S
$$

TEXAS PANHANDLE/OKLAHOMA PANHANDLE

CITY           SKY/WX    TMP DP  RH WIND       PRES   REMARKS
AMARILLO       CLOUDY    27  25  92 NE16      29.98R FOG     WCI  15
BORGER         FRZ RAIN  26  24  92 NE14      30.04R FOG     WCI  14
CANADIAN       CLOUDY    28  25  91 NE13G23   30.05R FOG     WCI  17
DALHART        CLOUDY    26  23  88 NE20      29.98R FOG     WCI  12
DUMAS          CLOUDY    24  23  94 NE12G20   30.00R FOG     WCI  13
GUYMON         NOT AVBL
HEREFORD       NOT AVBL
PAMPA          NOT AVBL
PERRYTON       NOT AVBL
$$

SOUTHERN PANHANDLE/SOUTH PLAINS/ROLLING PLAINS

CITY           SKY/WX    TMP DP  RH WIND       PRES   REMARKS
LUBBOCK        FOG       43  42  97 NE15      29.86R VSB 1/2 WCI  36
SNYDER         NOT AVBL
CHILDRESS      CLOUDY    37  27  67 NE16G24   29.96R WCI  28
SEMINOLE       DRIZZLE   48  46  93 S3        29.83S
$$

PERMIAN BASIN

CITY           SKY/WX    TMP DP  RH WIND       PRES   REMARKS
MIDLAND        CLOUDY    45  44  97 CALM      29.84R FOG
ODESSA         CLOUDY    47  43  86 CALM      29.83R
WINK           CLOUDY    48  43  82 S5        29.82R
$$

FAR WEST/SOUTHWEST MOUNTAINS/TRANS PECOS

CITY           SKY/WX    TMP DP  RH WIND       PRES   REMARKS
ALPINE         CLOUDY    43  41  94 SW5       29.93R
DRYDEN           N/A     52  51  97 E6        29.80F
EL PASO        MOCLDY    51  34  52 SW10      29.84S
FORT STOCKTON  CLOUDY    48  45  89 SW7       29.84R
GUADALUPE PASS NOT AVBL
MARFA          CLOUDY    45  41  87 N7        29.90R
PECOS          CLOUDY    45  43  94 CALM      29.84R
$$

DALLAS/FORT WORTH METROPLEX

CITY           SKY/WX    TMP DP  RH WIND       PRES   REMARKS
DFW AIRPORT    DRZL/FOG  50  50 100 N9        29.88R VSB 1/4
FTW MEACHAM    LGT RAIN  52  50  93 N9        29.88R FOG
DAL-EXECUTIVE  FOG       52  52 100 N3        29.88R VSB 1
GRAND PRAIRIE  NOT AVBL
ADDISON        LGT RAIN  52  50  93 N5        29.90R FOG
MESQUITE       NOT AVBL
LANCASTER      DRIZZLE   51  50  95 N3        29.89R
$$

NORTH CENTRAL TEXAS

CITY           SKY/WX    TMP DP  RH WIND       PRES   REMARKS
SHRMAN/DENISON CLOUDY    48  48 100 N12       29.93R
GAINESVILLE    LGT RAIN  46  46  99 N15       29.93R WCI  39
BRIDGEPORT     RAIN      49  49 100 N8        29.91R
DENTON         CLOUDY    49  48  97 N10       29.89S FOG
WAXAHACHIE     DRIZZLE   53  53 100 N5        29.89R
GRANBURY       LGT RAIN  52  51  95 CALM      29.88R
$$

WESTERN NORTH TEXAS

CITY           SKY/WX    TMP DP  RH WIND       PRES   REMARKS
WICHITA FALLS  LGT RAIN  38  35  89 NE21      29.96R WCI  28
VERNON         CLOUDY    39  29  68 NE15      29.97R WCI  30
BRECKENRIDGE   NOT AVBL
COMANCHE       CLOUDY    53  53 100 CALM      29.83F FOG
$$

CENTRAL AND SOUTH CENTRAL TEXAS

CITY           SKY/WX    TMP DP  RH WIND       PRES   REMARKS
AUSTIN/BERGSTM FOG       57  57 100 CALM      29.83R VSB 1/4
WACO           FOG       54  53  97 NW5       29.86R VSB 1/4
HILLSBORO      NOT AVBL
TEMPLE         CLOUDY    57  55  94 SE6       29.84S VSB 1/4
KILLEEN-GRAY   NOT AVBL
FORT HOOD      MOCLDY    61  61 100 SE5       29.82F FOG
GEORGETOWN     CLOUDY    61  59  94 CALM      29.84S VSB 1/4
LAGO VISTA     FOG       63  62  96 CALM      29.85S VSB 1/4
SAN MARCOS     CLOUDY    59  57  94 CALM      29.83R VSB 1/2
NEW BRAUNFELS  FOG       60  59  96 CALM      29.81S VSB 1/2
RANDOLPH AFB   MOCLDY    61  61 100 SE5       29.81S FOG
SAN ANTONIO    CLOUDY    64  62  93 S5        29.82R FOG
STINSON        FOG       62  62 100 CALM      29.79S VSB 1
PLEASANTON     NOT AVBL
LA GRANGE      NOT AVBL
GIDDINGS       CLOUDY    66  65  97 CALM      29.87S FOG
$$

EAST TEXAS

CITY           SKY/WX    TMP DP  RH WIND       PRES   REMARKS
PARIS          CLOUDY    46  45  93 CALM      29.92R
CLARKSVILLE    NOT AVBL
TYLER          FOG       60  59  96 SE3       29.87R VSB 1/2
LONGVIEW       LGT RAIN  63  61  93 CALM      29.87R VSB 1
PALESTINE      LGT RAIN  65  65 100 CALM      29.87S
NACOGDOCHES    CLOUDY    64  63  94 S3        29.89R
$$

TEXAS HILL COUNTRY AND EDWARDS PLATEAU

CITY           SKY/WX    TMP DP  RH WIND       PRES   REMARKS
LLANO          NOT AVBL
HORSESHOE BAY  FOG      N/A N/A N/A CALM      29.83S VSB 1/4
KERRVILLE      DRIZZLE   56  55  95 NW3       29.83S
FREDERICKSBRG  NOT AVBL
ROCKSPRINGS    NOT AVBL
HONDO          FOG       61  60  97 E6        29.81S VSB 1/2
UVALDE         FOG       58  58 100 CALM      29.80S VSB 1/2
DEL RIO        CLOUDY    57  53  86 CALM      29.80R
$$

SOUTHEAST TEXAS

CITY           SKY/WX    TMP DP  RH WIND       PRES   REMARKS
COLLEGE STN    CLOUDY    66  65  96 SE3       29.85R FOG
CALDWELL       NOT AVBL
CROCKETT       NOT AVBL
BRENHAM        PTCLDY    71  69  93 S5        29.85S
HUNTSVILLE     CLOUDY    68  66  93 S6        29.86S
CONROE         CLOUDY    68  66  93 S3        29.88R
HOUSTON BUSH   CLOUDY    70  67  90 S7        29.86R
HOUSTON HOBBY  CLOUDY    70  68  93 S8        29.87R
PERLAND        CLOUDY    70  68  93 S9G17     29.88R
WHARTON        CLOUDY    69  68  95 S7        29.87R FOG
$$

THE UPPER TEXAS COAST

CITY           SKY/WX    TMP DP  RH WIND       PRES   REMARKS
ORANGE         CLOUDY    67  67  98 S7        29.91R
PORT ARTHUR    CLOUDY    69  67  93 S10       29.89R
GALVESTON      CLOUDY    64  64 100 SE8       29.88R FOG
ANGLETON       CLOUDY    68  68 100 S13       29.86R
BAY CITY       CLOUDY    70  70 100 SE9       29.85R FOG
$$

TEXAS COASTAL BEND, RIO GRANDE PLAINS DEEP SOUTH TEXAS

CITY           SKY/WX    TMP DP  RH WIND       PRES   REMARKS
VICTORIA       CLOUDY    69  68  96 S8        29.83R FOG
BEEVILLE       FAIR      66  66 100 SE12      29.80F FOG
ROCKPORT       CLOUDY    67  65  93 SE7       29.82R FOG
PORT ARANSAS   NOT AVBL
PORT LAVACA    CLOUDY    68  68  99 S6        29.84R FOG
CORPUS CHRISTI CLOUDY    67  66  97 S10       29.80S FOG
KINGSVILLE NAS CLOUDY    67  67 100 E7        29.79F
COTULLA        CLOUDY    63  62  97 E9        29.77F FOG
LAREDO         LGT RAIN  61  61 100 CALM      29.80S FOG
BROWNSVILLE    CLOUDY    69  68  96 S13       29.78R
PORT ISABEL    CLEAR     70  68  93 S13       29.78R FOG
HEBBRONVILLE   NOT AVBL
MCALLEN        CLOUDY    71  67  87 SE13      29.77R
WESLACO        NOT AVBL
FALFURRIAS     PTSUNNY   67  65  93 E5        29.78S
EDINBURG       CLOUDY    71  66  84 S9        29.78R
$$


USA.gov is the U.S. government's official web portal to all federal, state and local government web resources and services.